User: anonymous   Login
Location: Newark
(48.4472°N, 1.4892°E)
Time: 08:10:52
(UTC+00:00)
Language:

Vanguard 2 - Orbit

View from above orbital plane
View from above orbital plane
View from above satellite
View from above satellite

Ground track
Ground track

The orbit data is extracted from the following two-line orbital elements,

1    11U 59001A   19315.76158225 +.00000194 +00000-0 +10779-3 0  9993
2    11 032.8635 156.4591 1466750 096.9431 279.9652 11.85625468249015
Epoch (UTC): 11 November 2019 18:16:40
Eccentricity: 0.1466750
inclination: 32.8635°
perigee height: 554 km
apogee height: 2937 km
right ascension of ascending node: 156.4591°
argument of perigee: 96.9431°
revolutions per day: 11.85625468
mean anomaly at epoch: 279.9652°
orbit number at epoch: 24901

The dashed part of the orbit path shows where the satellite is in the earth's shadow,  

DLR